Wind_Speed
21 20 19 17 16 16 16 13 11 13 14 15 16 15 16 15 13 12 12 13 15 16 17 18 18 20 20 20 20 19 19 19 18 17 16 15 15 14 14 14 14 14 14 13 13 13 13 13 14 15 15 16 16 17 17 17 17 17 17 17 17 17 17 16 16 15 15 15 15 14 14 15 15 15 15 15 16 17 18 19 19 19 19 19 20
24 23 19 16 14 13 12 11 10 11 13 15 17 16 15 16 16 14 14 16 17 19 20 20 20 20 21 21 21 20 20 19 19 18 17 16 15 15 14 14 14 14 14 14 13 14 14 15 17 17 18 18 18 18 18 18 19 19 19 18 18 18 17 17 17 17 16 16 16 16 16 16 16 16 16 16 17 17 18 19 20 21 21 21 21
26 24 20 15 13 12 10 10 11 12 12 13 14 14 15 17 17 17 19 20 21 22 22 21 22 21 20 20 20 20 20 20 20 20 19 18 17 17 16 16 16 16 15 15 15 15 16 17 18 19 19 19 19 19 19 19 20 20 20 20 19 19 19 19 18 18 18 18 17 18 18 17 18 18 18 18 18 18 18 19 20 20 21 21 22
26 24 21 17 15 14 12 12 13 13 13 13 12 12 13 15 17 19 23 24 23 23 23 23 23 23 22 21 20 19 18 19 19 19 19 19 18 18 18 18 18 18 18 17 18 18 18 18 18 19 20 21 21 20 20 20 20 20 21 21 21 21 22 22 21 21 21 21 21 21 20 20 20 20 21 20 20 20 20 20 20 21 21 21 21
25 24 22 19 17 15 14 14 15 16 16 15 14 13 13 15 17 21 25 26 25 23 24 25 25 25 24 24 22 19 18 18 18 18 18 19 19 19 19 19 20 20 20 20 20 20 20 20 21 22 22 22 22 22 21 21 21 21 21 22 22 23 23 24 24 25 25 25 25 24 24 23 22 22 22 22 22 21 21 20 20 20 21 21 21
23 23 22 21 20 18 17 16 17 18 18 17 16 15 16 18 20 22 24 26 25 24 24 25 26 26 27 25 22 20 18 17 18 18 19 19 19 20 20 20 21 21 22 22 21 21 22 22 23 24 25 25 24 24 23 23 23 23 23 22 22 23 24 25 26 27 27 28 28 27 26 25 24 23 22 22 22 23 23 23 23 23 22 23 23
25 23 22 22 22 22 22 21 20 19 18 17 16 16 18 19 21 23 24 25 28 29 27 26 27 26 25 23 21 20 19 18 18 19 20 20 20 21 22 22 23 24 24 24 23 23 24 25 25 26 26 27 27 26 25 25 25 25 24 24 24 24 25 27 28 29 29 30 30 30 29 28 27 27 26 26 26 27 28 28 28 28 28 28 28
29 28 26 27 28 28 28 26 24 21 20 20 20 19 19 20 20 22 23 24 28 31 30 27 27 26 23 20 20 22 22 21 21 21 21 22 22 22 22 23 25 27 27 26 26 25 26 28 29 29 27 27 29 29 28 27 27 27 27 27 28 28 28 29 30 30 31 32 33 33 33 33 32 32 32 31 31 32 32 31 31 32 33 34 34
33 34 33 34 35 34 32 30 29 28 28 27 26 24 22 22 22 22 23 22 24 28 30 29 29 28 24 21 22 25 24 23 23 24 24 25 25 24 23 23 24 27 28 28 28 28 28 30 33 32 30 28 29 30 31 31 31 31 32 33 35 35 33 32 31 31 32 33 34 35 37 37 37 37 37 37 36 36 36 36 35 36 37 38 40
36 38 39 40 40 39 37 34 32 33 32 31 31 29 26 25 24 24 25 24 23 25 28 30 31 29 26 24 24 25 26 27 28 29 28 27 27 27 27 27 28 29 30 30 30 30 31 32 34 34 33 32 32 32 33 34 34 34 35 36 38 38 38 36 36 36 36 37 38 38 39 40 40 40 41 42 42 42 41 41 41 41 41 42 43
39 40 42 43 43 43 40 37 35 34 34 34 33 33 31 29 28 27 27 27 28 28 28 29 30 30 27 26 27 28 29 30 31 31 29 29 30 31 32 33 34 34 35 34 34 34 35 35 35 35 36 36 36 37 38 39 39 39 39 39 40 41 42 43 43 43 42 42 43 43 43 44 44 45 45 46 47 48 47 47 47 47 47 47 46
41 42 43 44 44 43 41 39 38 37 36 35 35 36 35 34 33 32 31 30 31 33 32 31 33 34 32 31 30 30 30 29 30 31 31 31 32 33 33 33 33 33 34 35 36 37 38 38 39 40 40 41 41 42 43 44 45 45 45 44 44 45 46 48 48 48 48 48 49 49 48 48 48 49 50 50 51 51 52 52 52 52 52 52 51
43 43 44 44 44 43 42 41 41 40 39 38 37 37 37 36 35 34 35 34 33 34 34 34 35 36 34 33 33 33 31 31 31 32 32 31 30 30 31 32 33 34 35 35 36 37 38 39 41 42 43 44 46 47 48 49 50 50 50 50 50 49 49 50 50 51 52 52 52 52 52 52 52 52 53 54 54 55 56 57 57 58 57 57 56
43 44 44 45 45 44 44 44 43 42 41 40 39 38 37 37 36 35 36 36 36 35 36 36 36 35 34 34 35 35 35 36 36 34 32 31 29 30 32 34 36 37 37 37 37 37 38 40 42 43 44 45 46 48 49 50 51 52 53 53 53 53 52 51 51 51 52 53 53 53 53 54 54 55 56 57 58 59 59 60 60 61 60 59 59
41 42 43 44 45 45 46 46 45 44 43 41 40 39 38 38 38 38 38 37 38 38 37 37 36 36 36 35 36 36 37 36 36 34 32 31 31 32 35 36 37 37 37 38 38 38 39 40 41 43 45 46 47 48 49 50 50 51 52 53 53 53 53 52 52 52 52 52 53 53 54 54 55 56 58 59 60 60 60 60 61 61 60 59 58
42 42 42 43 44 45 46 46 46 45 44 43 42 41 40 40 40 40 40 40 40 40 40 39 38 37 37 37 37 37 37 36 34 33 33 33 34 36 36 37 37 37 38 39 39 40 40 40 41 43 44 45 47 48 48 49 50 50 51 51 51 51 52 52 52 52 53 53 54 54 55 55 56 57 59 60 61 62 62 62 63 63 62 61 60
43 41 40 41 41 42 43 44 45 44 44 43 43 43 42 43 43 43 43 43 43 42 40 39 38 38 38 38 39 39 38 37 36 36 35 36 36 37 37 38 39 39 40 41 41 41 41 41 42 43 44 45 46 47 48 48 49 50 50 50 51 51 52 52 53 53 54 54 55 55 56 57 57 58 59 60 61 62 63 64 64 64 64 64 63
43 40 38 38 38 40 41 42 42 42 42 42 42 42 42 42 42 42 43 43 43 42 41 39 39 39 39 39 40 40 39 39 39 40 40 39 39 39 40 41 41 41 41 42 42 42 42 42 43 43 44 45 46 47 48 48 49 50 50 50 51 51 51 52 52 53 53 53 54 55 56 57 58 59 59 61 61 62 63 63 64 64 64 64 64
46 45 44 41 39 39 40 41 41 42 42 42 42 42 42 42 41 41 42 42 42 42 41 40 39 38 38 39 40 40 41 41 42 43 43 43 43 43 44 44 43 43 43 43 43 43 43 43 43 43 44 44 44 45 46 46 47 47 48 48 49 49 49 50 50 51 52 52 53 54 55 55 57 58 59 60 61 62 63 63 64 64 64 64 65
50 51 51 50 47 43 40 39 39 40 41 42 43 43 43 42 42 42 43 43 42 42 41 41 40 40 39 39 39 40 41 41 42 43 44 45 45 46 46 46 46 46 45 45 45 44 44 44 43 43 43 43 44 44 43 44 44 45 45 46 46 47 48 49 49 50 51 51 52 53 54 54 55 56 58 59 60 61 62 63 64 64 64 64 65
55 55 56 57 56 54 51 48 45 43 42 41 41 41 41 41 41 42 43 43 43 43 43 43 42 42 41 40 39 40 40 40 41 42 44 45 47 48 48 48 48 47 47 46 46 45 44 44 43 43 43 43 43 43 43 43 44 44 44 45 46 47 47 48 48 49 49 50 51 51 52 53 54 55 56 57 59 60 61 62 62 63 63 64 64
57 57 57 57 58 59 58 56 53 50 47 45 43 42 42 41 40 40 41 42 43 43 45 45 44 43 42 42 41 41 41 42 43 44 46 47 49 50 51 51 50 49 48 47 46 45 44 44 43 43 42 42 42 42 42 43 43 44 44 45 45 46 47 47 47 47 48 49 50 51 52 53 53 54 54 54 55 56 57 58 58 59 60 61 61
57 57 57 57 57 58 57 56 55 53 51 49 48 47 46 44 42 39 40 43 45 46 47 48 46 45 45 45 44 45 45 46 47 48 50 52 53 54 54 53 51 50 48 47 47 46 45 45 44 43 42 42 42 42 42 43 43 44 44 44 44 45 45 45 46 46 47 49 49 50 51 52 52 51 51 51 51 52 53 53 54 54 55 56 57
59 58 57 57 57 58 58 57 57 57 56 55 54 53 51 48 47 45 44 45 46 47 49 50 49 48 48 48 49 50 51 52 53 54 55 56 56 55 54 52 50 48 47 46 44 43 43 43 42 41 41 42 42 42 42 43 43 43 43 43 43 43 44 45 46 46 47 48 49 49 50 51 51 51 51 51 51 52 52 52 53 53 54 54 54
62 62 61 59 59 59 59 58 57 57 58 58 57 55 52 50 51 52 51 50 50 50 51 52 53 52 53 54 56 58 59 60 60 59 58 56 55 53 50 48 47 46 44 42 40 38 38 38 38 39 40 41 41 41 42 42 42 42 42 42 42 43 44 45 46 46 46 47 48 49 49 50 51 51 51 52 53 53 54 54 54 55 55 55 55
64 64 64 63 63 62 62 61 60 59 59 58 56 55 54 53 53 54 55 55 57 57 56 55 55 56 57 57 58 60 61 60 57 55 53 52 51 49 48 46 45 45 44 43 42 41 40 39 39 39 39 39 39 40 41 41 41 41 41 41 42 43 44 45 45 46 46 47 48 48 49 50 51 52 52 53 54 55 55 55 55 56 56 57 56
67 67 66 66 66 66 65 65 63 63 62 60 59 59 58 57 57 56 56 56 58 59 58 55 54 54 53 50 50 51 52 51 50 50 50 50 49 48 47 46 45 45 45 45 45 45 45 44 44 43 42 41 40 40 40 40 40 40 40 41 42 43 44 45 45 46 46 47 47 48 49 50 51 52 53 54 54 55 56 56 56 56 56 56 56
71 70 70 69 69 69 68 68 67 66 65 63 63 62 61 60 61 62 61 61 61 61 60 58 57 56 54 51 50 50 50 51 52 53 53 51 49 48 46 45 45 44 44 45 45 45 45 45 45 45 44 43 42 40 40 39 39 40 40 41 42 42 43 44 45 45 46 46 47 48 48 50 51 52 53 53 54 54 55 55 54 54 54 54 54
70 70 69 70 70 69 69 68 68 68 67 64 63 63 61 60 61 61 61 61 62 62 61 61 60 60 59 57 56 55 55 56 56 55 53 51 49 47 45 44 44 44 44 44 45 45 44 43 43 42 41 40 39 39 39 40 39 40 40 41 41 42 42 43 43 44 44 44 45 47 48 49 50 51 52 52 53 54 54 54 54 53 52 52 52
70 69 68 68 67 67 67 66 65 65 65 65 64 62 60 60 61 61 60 59 58 58 58 59 59 59 58 58 57 56 56 56 55 53 52 50 48 46 45 44 44 44 44 44 44 44 43 41 40 39 38 38 38 39 39 39 39 39 40 40 40 40 40 40 39 39 40 41 43 45 47 49 50 51 52 52 53 53 53 52 51 49 48 48 47
71 70 69 68 67 66 66 65 64 63 63 63 63 61 58 56 56 57 57 57 56 55 55 55 56 56 56 55 55 54 53 52 52 51 50 48 47 46 45 44 44 43 43 43 42 41 40 39 38 37 37 37 38 38 38 38 38 38 38 38 38 36 35 34 34 35 37 40 42 45 48 49 51 51 52 51 51 50 50 48 46 43 42 40 39
71 70 70 69 68 67 66 66 65 64 63 62 62 61 58 55 52 50 51 54 54 53 53 54 53 52 51 51 51 50 49 49 48 48 47 46 45 43 42 42 41 41 41 40 39 38 37 36 36 36 36 36 36 36 36 36 36 35 35 33 32 30 29 29 31 34 37 40 43 46 48 50 50 50 49 48 45 43 41 38 36 34 33 32 32
66 67 67 68 68 67 66 66 65 65 64 63 62 61 59 58 55 52 51 52 52 50 50 51 52 51 50 49 49 48 47 46 45 44 44 43 42 40 39 39 39 38 37 36 36 35 35 35 35 35 35 35 35 34 34 33 32 31 29 26 25 24 26 28 31 35 38 41 43 46 48 48 47 45 41 38 34 32 30 29 28 28 27 27 27
55 57 59 61 62 64 64 64 63 63 63 63 62 61 60 59 58 57 57 56 52 47 44 45 47 48 47 46 47 47 46 45 44 42 41 40 39 38 37 36 36 35 34 34 34 34 33 33 33 33 33 33 33 32 31 30 28 25 22 20 20 22 25 28 32 35 38 41 43 45 46 44 39 34 30 27 26 25 25 24 24 24 24 24 25
42 45 48 50 53 55 57 58 59 59 60 60 60 59 58 58 59 59 59 58 56 53 50 49 48 47 44 42 42 42 42 41 40 39 38 38 36 35 35 34 33 33 32 32 32 32 32 32 32 32 32 31 30 29 27 24 21 18 17 18 20 22 25 28 33 36 39 41 43 44 42 36 29 25 24 24 23 22 21 20 20 21 22 24 25
35 35 36 39 43 45 47 49 51 52 53 54 54 55 55 55 56 57 57 57 56 56 55 54 52 50 47 44 41 40 38 37 37 37 36 35 34 34 33 32 32 31 31 31 31 31 31 31 31 30 29 28 27 25 22 19 16 14 15 17 20 22 25 29 33 36 38 40 41 40 34 27 23 23 23 22 20 18 18 18 20 21 22 23 24
33 32 30 31 33 36 38 40 42 43 45 46 47 49 49 50 51 52 53 53 53 53 53 52 51 50 48 45 42 39 37 36 36 35 35 34 33 32 32 31 31 30 30 31 31 31 31 30 29 28 26 25 23 20 17 14 13 13 15 17 19 21 25 29 33 35 37 37 37 33 27 22 21 21 20 18 17 17 17 18 20 21 21 20 21
25 28 29 29 29 30 32 34 35 37 37 38 39 40 42 44 46 47 48 49 49 49 49 49 48 47 46 44 42 38 36 35 35 34 34 33 32 32 32 31 30 30 30 31 30 30 28 27 25 24 23 22 19 17 14 13 13 14 16 17 19 22 25 28 32 35 36 34 31 26 22 20 20 19 17 16 16 17 18 19 19 19 19 20 21
18 19 23 27 29 29 30 31 33 34 34 34 35 35 36 38 39 41 43 44 45 45 45 44 44 43 42 41 39 36 35 34 34 33 33 32 32 32 31 30 30 30 30 29 28 26 25 23 23 22 21 19 17 15 13 13 13 14 15 17 20 22 24 28 32 34 35 32 27 22 19 18 17 16 15 15 16 17 18 18 18 17 19 21 24
15 14 16 19 24 28 30 31 31 32 32 32 33 33 33 33 34 36 37 38 39 39 38 38 37 37 37 36 35 34 33 33 32 32 31 31 31 30 30 29 29 28 27 25 24 22 21 21 21 20 19 18 16 14 13 13 13 13 15 17 20 22 24 27 31 33 35 32 25 20 17 15 14 14 14 15 16 17 18 18 18 19 20 23 25
13 13 14 15 17 21 25 28 28 28 29 29 30 31 31 31 31 30 30 30 29 26 21 20 23 26 28 30 30 31 31 31 30 30 30 30 29 28 27 26 25 24 22 21 20 20 20 21 20 19 18 17 15 14 14 13 12 13 15 18 20 22 24 27 30 32 35 34 27 19 16 14 13 13 14 15 16 17 17 18 18 19 21 22 23
7 9 10 11 12 14 18 21 23 24 25 26 27 28 29 28 26 24 22 21 20 18 14 13 18 22 24 25 27 28 28 28 28 28 28 27 26 25 24 23 21 20 19 19 19 20 21 21 20 18 17 16 15 15 14 12 11 13 16 18 20 21 24 26 28 31 34 35 31 22 15 13 13 13 13 14 15 15 15 16 16 18 20 21 21
9 3 4 6 9 11 14 16 19 20 22 24 25 26 25 21 18 16 17 19 21 21 21 24 26 26 25 24 24 24 24 24 25 25 24 23 22 21 20 18 17 18 19 19 20 21 22 20 18 17 16 15 15 14 13 11 11 14 16 18 19 21 23 25 27 29 32 35 35 28 19 13 12 12 12 12 13 13 13 13 15 17 19 20 20
23 15 7 2 2 5 9 13 15 18 20 21 23 23 22 21 22 20 17 18 20 22 26 32 33 31 26 22 20 20 20 21 21 21 20 19 19 17 16 17 18 19 20 21 22 21 20 18 16 16 16 15 14 13 12 11 12 14 16 17 19 20 22 24 26 27 29 32 34 32 25 16 12 11 10 10 11 12 12 13 15 17 19 20 20
28 26 21 15 10 6 4 6 10 14 16 18 19 22 26 28 25 21 19 17 17 21 27 31 31 28 24 20 19 19 19 19 18 18 18 18 18 18 18 19 20 21 21 22 21 19 16 15 16 16 15 14 14 13 12 12 13 14 16 17 18 20 22 23 25 26 27 29 32 33 30 22 14 11 10 10 11 11 11 12 15 17 18 20 21
22 25 25 24 22 18 16 13 11 10 11 13 18 23 26 25 21 20 19 16 15 18 23 25 25 23 21 19 18 18 18 17 17 18 19 18 18 19 21 22 22 22 21 20 18 16 15 16 16 15 14 14 14 14 14 14 14 15 15 16 17 19 20 22 23 24 26 28 29 31 31 27 20 13 11 10 11 10 10 12 15 17 18 19 20
18 19 21 23 24 24 23 21 20 19 18 19 20 21 21 20 19 19 18 17 17 18 19 19 18 17 16 15 15 15 16 17 17 18 19 19 20 21 23 23 22 21 19 17 15 15 16 16 15 14 13 13 14 14 14 15 15 16 16 16 17 18 20 21 23 23 25 26 27 28 30 30 27 20 14 11 11 11 10 11 13 16 18 19 19
15 16 16 17 18 19 20 20 20 19 19 18 18 17 17 17 18 18 18 18 18 16 15 13 12 12 13 14 14 15 16 17 18 19 19 21 22 23 23 22 20 18 17 16 16 16 15 14 13 13 13 14 14 15 15 16 16 17 16 16 16 17 18 20 22 22 23 24 26 27 28 29 29 27 21 15 12 12 12 12 13 14 16 18 18
14 14 14 14 14 14 14 14 14 14 13 12 12 12 12 12 13 14 14 13 12 12 11 10 11 12 13 14 15 16 17 18 19 19 21 22 23 22 20 19 17 16 16 15 15 15 14 13 13 13 14 14 15 15 15 16 17 17 17 17 17 17 18 19 20 21 22 23 24 25 27 27 28 28 27 21 15 13 13 14 14 14 15 16 17
11 11 11 12 12 12 11 10 9 8 8 7 8 8 9 9 9 10 10 10 10 11 11 12 13 14 14 14 15 18 19 20 20 21 22 22 21 20 18 17 16 15 14 14 13 13 14 14 14 14 15 15 16 16 16 16 17 18 18 18 18 18 18 19 20 20 21 22 22 23 25 26 27 27 28 26 23 17 14 14 15 16 15 16 17
12 11 10 10 10 9 9 9 8 7 6 6 7 8 8 8 8 8 9 9 10 11 13 14 16 16 15 15 16 19 21 22 22 22 22 21 20 19 17 15 14 13 12 12 13 14 15 15 15 16 16 16 16 17 17 17 17 18 18 19 19 19 19 19 19 20 20 20 21 21 23 24 25 26 26 27 26 23 18 15 14 15 15 15 15
Wind_Direction
288 288 286 288 291 294 303 301 274 260 267 271 272 276 271 261 259 261 258 254 250 246 246 249 252 253 249 245 241 238 236 232 230 230 231 234 238 241 244 246 248 249 250 253 255 260 266 271 276 279 281 283 284 285 285 286 287 286 287 286 285 284 282 280 278 277 277 277 276 276 277 277 278 280 281 282 283 284 285 285 285 284 284 283 282
287 286 282 284 290 296 300 295 282 276 277 277 277 279 277 273 271 268 263 262 261 258 255 256 260 260 256 251 247 243 240 237 235 234 233 235 235 236 238 241 245 249 253 255 260 267 273 276 277 276 274 274 274 276 278 280 281 282 284 285 285 284 284 283 281 279 279 279 278 278 278 276 276 276 276 277 277 278 279 281 283 285 285 285 285
283 281 279 281 288 293 290 281 280 284 286 286 283 277 272 271 271 269 268 268 264 261 260 263 266 264 260 257 255 252 251 248 245 242 239 236 234 233 235 239 243 247 250 253 258 266 274 278 279 279 277 274 272 271 272 274 277 279 281 282 283 284 283 283 282 282 280 278 277 276 274 273 271 270 270 270 271 272 272 273 275 278 280 282 284
277 274 272 277 286 288 279 272 271 272 276 283 286 280 272 271 272 273 273 273 271 267 265 265 265 262 256 253 253 254 256 257 255 253 250 245 240 237 238 241 243 245 248 252 257 263 268 271 273 276 277 276 274 272 271 272 273 275 277 278 279 280 281 282 282 281 280 279 277 274 272 270 269 269 269 268 268 270 271 273 274 274 275 276 277
271 269 267 270 281 285 276 269 266 263 267 274 278 278 276 274 272 270 271 273 273 272 271 269 266 262 256 250 247 248 251 254 256 256 256 253 249 244 243 243 245 246 250 254 259 263 266 269 270 271 271 271 271 270 270 270 269 269 270 272 274 276 277 279 280 280 280 280 280 279 277 275 273 273 273 273 273 273 273 274 275 276 277 277 276
266 267 267 270 280 286 283 278 272 267 266 271 276 278 276 274 271 269 271 274 272 267 266 266 262 260 259 254 249 248 248 248 251 252 253 254 255 254 252 251 251 252 254 257 260 264 267 270 272 272 268 265 263 265 266 266 266 266 266 268 271 274 277 279 280 280 280 279 279 279 278 276 274 273 273 274 276 278 280 280 279 279 279 280 280
260 264 270 276 283 287 288 288 284 275 268 270 278 282 280 278 274 270 270 275 275 267 260 258 254 250 250 252 250 247 245 245 250 252 253 256 260 261 260 258 257 256 256 257 260 265 270 273 274 275 273 265 258 258 260 261 262 262 263 265 268 272 276 279 280 279 279 279 278 277 275 273 271 271 272 273 275 279 281 283 283 282 282 282 283
260 263 270 277 281 284 286 287 285 281 276 275 278 281 282 281 277 271 269 272 276 270 260 252 247 241 239 243 246 244 242 246 252 256 257 259 260 261 262 264 262 259 258 258 259 264 270 273 274 275 276 269 260 256 257 259 259 258 259 261 264 268 274 278 278 278 278 277 276 274 272 271 270 269 269 271 274 277 278 279 280 282 283 285 286
263 264 268 275 279 283 283 281 279 279 278 278 279 279 278 276 271 268 267 270 276 275 264 251 243 241 240 239 242 243 245 250 254 256 259 261 260 259 261 267 267 263 260 260 261 262 264 268 270 272 274 272 266 261 259 260 261 260 260 261 264 267 271 273 275 276 277 277 276 274 272 271 270 268 267 269 272 275 276 276 276 278 280 283 285
265 265 268 273 278 280 280 278 276 275 276 276 277 276 274 272 268 265 263 262 267 274 271 257 246 241 239 238 242 251 257 260 259 258 259 261 259 255 258 268 273 270 266 265 265 264 263 264 267 269 271 271 270 267 265 265 266 266 266 266 267 269 270 271 275 277 278 278 277 277 275 274 273 270 268 268 271 273 273 274 275 276 277 278 281
266 267 269 272 275 277 278 277 275 274 273 272 272 272 271 270 268 265 262 260 259 263 267 262 250 245 248 256 261 264 265 261 256 255 261 264 261 259 264 273 277 274 271 270 270 269 268 268 269 270 270 270 270 270 269 269 269 270 271 271 270 271 272 274 276 278 278 278 278 277 277 276 274 272 270 269 269 270 272 273 274 275 275 276 277
268 268 269 271 272 273 273 273 272 271 270 270 269 269 270 269 266 264 263 261 259 260 263 263 258 256 262 269 268 263 259 254 252 256 265 267 264 265 270 276 276 274 272 273 273 272 272 272 272 272 272 271 271 270 271 271 272 272 273 272 271 271 271 273 275 277 277 277 277 277 277 275 274 272 271 269 269 269 271 272 274 274 275 275 275
268 268 268 269 269 269 269 268 267 267 268 268 268 267 268 267 266 264 263 262 262 261 261 263 264 263 263 262 261 257 256 257 259 263 267 267 265 266 270 273 275 276 276 277 278 278 277 276 275 274 273 272 272 272 272 272 273 274 274 274 273 272 272 272 273 273 274 274 274 275 274 273 272 271 270 269 269 269 270 272 273 274 274 275 275
268 267 267 267 266 266 265 264 263 263 264 264 264 264 264 264 264 264 263 262 262 262 261 261 263 264 263 261 260 260 261 262 264 265 265 265 265 266 268 272 274 276 278 279 281 282 281 279 277 276 275 274 274 273 273 273 273 274 274 275 275 275 275 274 273 272 272 272 272 271 271 270 270 269 269 269 269 269 270 271 272 273 274 274 274
269 268 267 267 266 265 264 263 264 264 264 263 262 260 259 259 261 262 262 261 260 261 262 262 261 262 264 263 263 263 264 263 263 263 262 262 264 266 270 274 276 277 278 280 282 283 283 282 279 277 275 275 274 274 274 273 273 273 274 274 275 276 276 276 276 275 275 274 273 272 271 270 269 269 269 269 269 269 269 269 270 270 271 272 272
269 269 269 268 267 266 266 266 266 266 266 266 264 261 259 259 259 259 260 260 260 261 262 262 261 261 262 263 263 264 265 263 261 260 259 261 264 268 273 277 279 280 281 282 284 284 285 283 281 279 276 275 274 274 274 274 275 275 275 275 276 277 277 278 278 278 278 278 277 276 275 274 272 271 270 270 270 270 270 269 269 269 269 269 270
265 266 269 269 268 266 266 266 266 266 266 267 266 263 261 260 260 260 260 261 261 262 261 261 261 260 261 261 261 262 263 262 260 259 260 262 266 270 276 280 282 283 284 284 285 285 284 283 281 279 277 276 275 275 275 276 276 276 277 278 278 279 279 280 280 280 279 279 279 278 278 277 275 274 273 272 271 270 269 269 269 269 269 269 268
258 257 259 262 263 263 263 264 264 265 265 265 265 264 262 261 260 260 261 262 262 263 263 262 261 260 260 260 259 260 260 259 258 258 261 264 268 273 279 283 285 285 285 285 285 284 283 282 280 277 275 274 273 274 274 275 275 276 277 278 278 279 279 279 279 280 280 279 279 279 278 277 277 275 274 273 272 271 270 270 269 269 269 268 268
255 254 254 255 257 258 260 262 264 265 265 263 263 263 263 262 261 260 261 263 264 264 264 263 262 261 260 259 258 258 258 258 258 259 262 265 270 276 281 285 287 287 287 286 285 285 284 282 280 278 275 274 273 272 273 273 274 275 276 276 277 278 278 279 280 281 281 281 281 281 280 279 278 277 276 275 274 273 272 271 270 269 268 268 268
257 256 255 254 254 254 255 259 262 263 264 263 263 263 263 263 262 262 263 264 265 264 264 264 263 262 261 260 260 260 260 261 262 263 265 268 272 277 282 286 288 289 288 287 287 286 284 283 281 279 278 277 276 276 275 275 276 276 277 277 278 279 280 281 282 283 283 283 283 282 281 280 279 278 277 276 276 275 274 273 272 271 270 269 268
259 258 256 254 254 254 254 255 256 257 259 259 260 262 263 264 264 264 265 266 266 265 265 265 265 264 263 262 262 263 263 264 266 267 269 272 276 280 284 287 289 289 288 287 286 285 284 283 282 281 280 279 279 278 278 278 278 279 279 280 280 282 282 283 284 284 284 284 283 282 282 281 280 280 279 279 278 278 277 276 275 274 273 272 270
260 259 257 256 256 256 256 255 254 253 254 254 253 254 256 259 261 264 266 267 265 263 263 264 265 265 265 264 264 264 265 267 268 270 273 276 279 282 285 287 288 287 287 286 285 285 284 284 284 284 283 281 280 280 280 279 279 280 281 282 283 283 284 285 285 285 284 283 282 281 281 281 281 282 282 282 281 281 280 279 279 278 277 276 275
261 260 259 258 257 256 256 255 253 251 251 251 251 251 252 254 258 260 261 261 258 256 258 261 264 265 265 264 264 265 266 268 270 272 275 279 281 283 285 286 286 286 286 286 285 285 284 284 284 284 283 282 281 280 279 279 280 281 282 284 284 285 285 285 285 283 282 282 281 281 281 282 282 283 284 284 284 284 283 283 282 281 281 280 279
262 261 260 259 258 256 256 255 253 252 251 251 252 253 255 258 260 258 254 254 253 253 255 259 262 264 264 264 265 266 267 269 271 274 278 280 282 283 284 285 285 286 286 286 286 285 284 283 282 282 281 280 280 279 279 280 281 283 284 285 285 285 285 284 283 282 282 282 282 283 283 283 284 284 284 285 285 285 284 284 283 282 281 281 280
261 261 261 260 259 258 257 256 255 254 254 253 253 254 255 256 258 255 251 250 251 253 255 258 260 263 265 266 267 268 269 271 273 276 278 279 280 281 283 283 283 283 283 283 283 283 284 283 282 281 281 280 279 279 280 281 282 283 284 285 285 284 283 283 283 284 284 285 285 285 285 285 285 285 285 285 285 284 284 283 283 282 281 281 281
259 259 259 259 259 259 258 258 258 257 257 255 254 254 252 251 251 252 251 250 250 253 257 260 264 266 268 269 270 271 271 272 274 275 276 277 279 280 281 281 280 280 279 279 279 280 281 282 282 282 281 280 280 280 280 281 282 283 284 283 283 283 283 284 285 286 286 287 287 287 286 286 286 286 285 285 285 285 284 284 283 283 282 282 281
260 259 258 258 258 258 258 258 258 258 258 257 256 256 255 253 251 251 250 250 250 253 256 259 263 265 265 266 267 269 270 271 272 274 277 278 279 279 279 279 278 278 277 277 277 277 277 277 279 280 279 280 281 281 281 281 282 281 281 281 281 282 283 285 286 287 288 288 287 287 287 286 286 286 286 286 285 285 285 285 284 284 283 283 282
262 261 260 259 259 258 257 257 257 257 257 257 257 257 256 255 254 254 253 253 254 255 256 257 258 259 260 261 261 263 266 269 271 274 277 278 278 277 277 277 276 276 276 276 276 276 277 277 278 277 277 279 281 282 282 282 282 281 281 282 284 285 286 287 288 288 288 288 287 287 286 286 286 286 286 286 286 286 286 286 286 285 285 284 283
262 262 261 260 260 259 259 258 258 257 256 255 255 255 254 254 254 255 255 255 256 257 257 258 258 258 259 260 260 261 264 267 270 273 274 275 275 275 275 274 274 274 274 274 275 276 277 277 277 277 277 278 279 280 281 281 282 283 284 286 288 289 289 289 289 288 288 287 287 286 286 286 286 287 288 288 288 288 288 288 287 287 286 285 283
261 261 261 260 260 259 259 258 258 257 257 256 255 254 253 252 253 253 253 253 253 254 255 256 258 259 260 261 262 262 264 266 268 270 271 272 272 271 271 271 271 272 272 272 273 274 276 276 276 276 277 278 278 279 280 282 283 285 287 288 290 290 289 288 287 287 287 287 287 287 288 289 289 290 290 290 290 290 290 290 289 288 287 285 283
259 259 259 259 258 258 258 257 256 255 255 256 256 255 254 252 252 253 254 253 252 253 256 256 257 259 261 262 262 263 264 266 267 268 269 269 269 269 269 269 269 269 270 270 271 272 273 274 274 276 276 277 278 279 281 283 286 287 288 289 289 288 286 286 287 288 290 292 292 292 292 292 292 292 292 293 293 293 292 291 291 289 288 286 285
256 256 256 256 256 256 255 256 255 254 253 253 254 255 254 253 251 252 254 254 253 254 256 257 258 259 260 260 261 262 263 264 265 266 267 267 268 268 267 267 267 267 267 268 269 270 271 272 273 275 276 277 278 280 283 285 287 287 287 286 285 284 285 289 293 296 297 297 296 295 294 294 294 295 296 295 294 293 292 291 291 290 290 290 291
256 254 254 253 253 253 253 253 253 254 253 252 252 252 252 251 249 247 248 250 252 254 256 258 260 260 259 259 260 262 263 264 264 265 266 267 267 267 267 266 265 265 265 266 267 268 269 271 272 273 275 277 280 282 284 285 284 283 282 280 282 287 293 298 301 303 302 301 299 298 297 298 298 298 297 295 293 293 293 293 292 292 293 295 297
258 255 253 252 251 251 251 251 251 252 252 252 251 250 250 250 249 247 246 248 251 252 254 257 260 261 260 259 261 262 263 263 263 264 265 266 266 266 266 265 264 263 264 265 266 267 268 270 271 273 276 278 280 281 281 280 278 275 274 277 286 295 300 303 307 309 309 307 304 302 302 302 301 299 297 295 295 297 296 294 293 294 297 299 300
260 257 254 252 250 249 249 249 249 249 250 250 250 250 249 248 248 248 248 249 250 250 250 252 256 259 261 261 261 261 262 262 263 263 264 264 265 265 264 263 263 263 263 264 265 267 269 270 272 274 275 277 277 277 275 271 267 266 273 285 293 298 304 310 314 316 315 313 309 306 306 305 303 300 299 299 299 299 298 298 298 300 303 304 304
260 257 254 251 249 248 247 247 247 247 247 248 248 248 247 247 247 247 248 248 249 251 253 254 256 259 262 263 263 263 263 263 262 263 263 264 263 263 262 262 263 263 264 265 266 268 269 270 272 272 272 272 271 268 263 257 256 265 280 290 296 302 310 316 319 320 319 316 312 309 307 305 302 301 302 300 298 298 300 302 305 306 307 307 307
259 256 252 249 247 245 245 246 246 247 247 247 247 247 246 246 246 246 247 248 249 251 253 254 256 258 261 262 262 262 261 261 261 262 263 263 263 262 262 262 263 263 264 265 266 267 268 268 268 267 266 263 259 252 245 246 256 272 283 291 300 309 315 319 322 324 324 320 314 309 306 302 300 301 301 298 297 299 301 304 307 307 307 308 310
266 256 250 246 243 242 242 243 245 246 246 246 247 247 247 246 245 245 245 246 247 248 250 252 254 256 258 259 260 260 259 258 259 259 260 260 261 261 261 261 262 263 263 264 264 264 264 263 260 257 254 249 241 235 234 245 261 275 286 296 307 313 317 322 327 330 331 326 318 310 306 302 300 300 299 296 296 300 302 305 307 306 306 310 315
278 265 254 246 242 239 240 242 243 244 245 245 244 245 246 246 246 246 245 245 245 245 246 248 250 252 254 256 256 256 255 254 254 255 256 257 257 258 259 259 260 260 260 260 260 259 255 251 247 243 239 233 228 228 236 249 264 278 292 304 311 314 319 327 332 335 337 335 325 311 306 305 301 299 297 295 295 299 302 303 304 304 306 313 320
273 269 262 251 243 239 237 238 241 243 243 242 241 241 243 244 245 245 245 244 244 244 245 246 248 250 251 251 251 250 248 248 250 251 252 253 253 255 256 256 255 255 255 254 252 246 240 235 232 229 226 225 225 231 241 252 266 284 298 306 310 315 323 331 335 339 343 344 336 318 308 306 302 295 293 293 294 299 302 303 304 305 310 316 322
270 269 265 254 243 238 235 235 237 239 238 238 239 238 238 241 242 242 241 241 238 235 237 244 250 251 248 245 243 242 242 243 246 247 248 249 250 251 250 249 248 248 246 241 234 227 223 222 221 221 223 225 227 233 242 254 272 291 301 304 310 319 327 333 338 343 348 350 347 332 313 304 298 291 290 294 297 301 304 306 307 311 317 321 325
292 272 263 245 232 230 229 228 228 229 232 233 232 232 235 238 238 234 229 221 208 201 206 228 243 248 244 237 234 235 236 237 240 242 243 244 244 242 241 241 239 235 229 221 214 212 213 216 218 221 224 226 228 234 244 258 278 292 299 305 313 322 329 333 339 346 351 354 354 347 328 309 301 294 293 298 303 305 308 312 316 321 324 327 331
26 337 266 242 231 227 222 217 218 222 223 223 224 227 229 222 206 194 190 183 178 183 197 207 216 229 236 232 227 228 228 229 232 234 234 234 233 232 231 228 221 214 208 203 203 208 212 215 218 222 224 225 228 236 247 262 279 289 298 307 316 323 329 333 339 347 353 357 358 356 346 326 312 307 305 306 310 314 318 324 328 330 332 336 340
45 45 46 53 221 222 215 212 214 216 216 219 225 222 203 174 155 155 171 180 181 189 198 202 208 219 226 221 215 216 218 219 222 223 223 223 221 216 211 206 203 200 199 200 204 209 212 215 220 223 223 224 230 239 250 264 278 288 299 309 316 323 328 332 338 346 353 357 360 0 356 342 325 319 319 318 320 324 330 332 332 335 341 346 348
48 51 55 63 71 86 127 176 200 208 213 218 214 196 175 160 154 160 174 186 195 203 205 205 208 210 205 197 199 209 214 215 215 215 214 211 204 198 198 200 201 200 200 203 207 210 213 217 221 222 221 225 233 242 251 263 275 286 297 307 316 322 327 330 336 344 351 356 0 3 3 356 341 324 322 326 326 326 332 338 339 341 345 350 351
47 53 60 67 72 77 82 90 105 130 156 171 171 164 158 157 159 165 173 186 201 204 199 195 194 191 187 186 196 207 211 212 212 209 205 200 197 198 201 202 201 201 202 205 208 211 214 217 219 220 222 229 238 245 252 262 271 282 294 304 313 320 325 329 334 341 349 354 358 3 5 5 357 338 320 319 321 323 331 343 347 348 348 349 352
45 51 59 69 76 80 83 88 95 104 116 129 140 146 150 155 161 166 173 180 180 175 172 174 177 181 183 187 194 202 207 208 206 202 199 199 201 202 200 198 198 200 202 204 208 212 214 216 218 221 227 235 242 249 255 262 270 279 290 300 310 318 323 327 332 338 345 350 355 359 4 8 7 358 338 317 310 314 325 334 341 346 349 350 352
47 50 55 62 71 79 85 90 96 101 107 114 122 130 138 145 151 156 161 163 163 162 166 171 177 183 189 194 199 203 203 201 199 199 201 201 199 196 193 193 195 198 200 204 209 212 213 216 220 225 232 239 246 252 258 264 270 278 287 297 306 314 320 325 330 335 340 345 350 355 359 5 9 8 359 339 313 303 308 316 325 335 342 345 348
48 52 55 58 61 66 73 80 88 95 100 106 113 122 131 139 147 153 158 163 169 176 182 185 189 194 199 202 201 197 197 199 201 200 198 194 191 189 188 191 195 199 202 207 210 212 216 221 226 230 236 243 248 254 259 266 272 278 286 294 302 310 316 321 327 332 336 340 346 351 354 358 4 8 8 1 342 314 299 299 307 317 327 334 341
50 53 58 61 62 63 65 68 73 83 98 113 125 133 140 149 157 162 166 173 182 189 193 199 203 204 204 201 196 194 198 202 201 196 191 188 187 188 191 194 198 201 205 210 215 220 225 228 231 235 240 245 251 256 261 267 273 278 284 292 299 306 312 317 322 328 331 335 341 347 350 352 356 2 6 7 2 346 321 302 298 303 311 320 329
52 55 60 64 67 68 70 74 78 88 107 131 146 152 158 165 172 178 181 186 193 199 203 206 208 206 200 196 196 199 202 201 197 192 189 188 189 191 195 199 202 207 213 220 226 231 233 234 237 240 243 247 253 258 262 267 272 277 283 289 297 303 308 312 317 322 325 329 336 342 345 347 349 353 359 4 6 3 352 332 310 301 301 306 314
Height
5738 5737 5736 5736 5737 5738 5737 5736 5736 5737 5737 5737 5737 5737 5737 5738 5739 5739 5740 5741 5742 5742 5742 5743 5743 5743 5743 5743 5743 5743 5743 5743 5743 5743 5744 5745 5745 5746 5747 5747 5748 5748 5749 5749 5749 5750 5750 5750 5750 5750 5751 5751 5751 5751 5751 5751 5751 5751 5751 5751 5751 5752 5752 5752 5751 5751 5751 5751 5751 5751 5751 5751 5751 5750 5750 5750 5750 5750 5749 5749 5749 5749 5749 5749 5750
5735 5735 5735 5735 5735 5735 5735 5734 5734 5735 5735 5735 5735 5735 5735 5736 5736 5737 5738 5738 5739 5740 5740 5740 5741 5741 5741 5741 5741 5741 5741 5741 5741 5741 5742 5742 5743 5744 5744 5745 5746 5746 5747 5747 5748 5748 5748 5748 5748 5748 5748 5749 5749 5749 5749 5749 5749 5749 5749 5749 5749 5749 5750 5750 5750 5750 5750 5750 5749 5749 5749 5749 5749 5748 5748 5748 5748 5747 5747 5747 5746 5746 5746 5746 5746
5733 5733 5733 5733 5734 5733 5733 5732 5732 5733 5734 5734 5733 5732 5732 5733 5733 5733 5734 5735 5736 5736 5737 5738 5738 5738 5739 5739 5739 5739 5739 5739 5739 5739 5739 5740 5740 5741 5741 5742 5743 5744 5744 5745 5745 5746 5746 5746 5746 5746 5746 5746 5746 5747 5747 5747 5747 5747 5747 5747 5747 5747 5747 5748 5748 5748 5748 5748 5748 5748 5748 5747 5747 5746 5746 5745 5745 5745 5744 5744 5744 5743 5743 5743 5743
5730 5731 5731 5731 5731 5731 5731 5731 5731 5731 5731 5731 5730 5730 5730 5731 5731 5730 5730 5731 5732 5733 5734 5734 5734 5734 5735 5735 5736 5737 5737 5737 5738 5738 5738 5738 5738 5738 5739 5739 5740 5741 5742 5742 5743 5743 5743 5744 5744 5744 5744 5744 5744 5744 5744 5744 5744 5745 5745 5745 5745 5745 5745 5745 5745 5746 5746 5746 5746 5745 5745 5745 5745 5744 5743 5743 5742 5742 5741 5741 5740 5740 5740 5739 5739
5727 5727 5728 5729 5729 5729 5729 5729 5729 5729 5729 5729 5728 5728 5729 5729 5729 5729 5728 5728 5729 5729 5730 5731 5731 5731 5731 5731 5732 5733 5734 5735 5735 5736 5737 5737 5737 5736 5737 5737 5737 5738 5739 5739 5740 5740 5740 5741 5741 5741 5741 5741 5741 5741 5741 5741 5741 5741 5742 5742 5742 5742 5742 5742 5742 5742 5742 5742 5742 5742 5742 5742 5742 5741 5740 5740 5739 5739 5738 5738 5737 5736 5736 5736 5736
5723 5723 5724 5725 5725 5725 5726 5726 5726 5726 5726 5726 5726 5726 5727 5727 5726 5726 5726 5726 5726 5726 5727 5727 5728 5728 5728 5728 5729 5729 5730 5731 5732 5733 5734 5734 5735 5735 5735 5735 5735 5735 5736 5736 5737 5737 5737 5738 5738 5737 5738 5738 5738 5738 5738 5738 5738 5738 5738 5738 5739 5739 5739 5739 5739 5739 5739 5739 5739 5739 5739 5739 5738 5738 5738 5737 5736 5735 5735 5734 5733 5733 5732 5732 5732
5720 5720 5720 5721 5721 5721 5722 5722 5723 5723 5724 5724 5724 5724 5724 5724 5723 5723 5723 5723 5723 5723 5724 5723 5724 5725 5725 5725 5726 5726 5727 5728 5728 5730 5731 5731 5731 5732 5732 5732 5732 5732 5732 5733 5734 5734 5734 5735 5734 5734 5734 5734 5734 5735 5735 5735 5735 5735 5735 5735 5735 5736 5736 5736 5736 5735 5735 5735 5735 5735 5735 5735 5735 5734 5734 5733 5733 5732 5731 5730 5729 5729 5728 5728 5727
5716 5716 5716 5716 5717 5717 5718 5719 5719 5720 5721 5721 5721 5721 5721 5721 5720 5720 5720 5720 5720 5719 5720 5720 5720 5721 5722 5723 5723 5724 5724 5725 5726 5726 5727 5728 5728 5728 5729 5729 5729 5729 5729 5729 5730 5731 5731 5731 5730 5730 5730 5730 5730 5731 5731 5731 5732 5732 5732 5732 5732 5732 5732 5732 5732 5732 5731 5731 5731 5730 5730 5730 5730 5730 5729 5729 5729 5728 5728 5727 5726 5725 5724 5723 5722
5711 5711 5711 5711 5712 5713 5714 5715 5715 5716 5717 5717 5717 5718 5718 5718 5718 5717 5716 5717 5717 5716 5716 5716 5717 5718 5719 5720 5720 5721 5721 5722 5722 5723 5723 5724 5724 5724 5724 5725 5725 5725 5725 5725 5726 5727 5727 5727 5726 5726 5726 5726 5727 5727 5727 5727 5728 5728 5728 5728 5727 5727 5728 5728 5728 5727 5727 5727 5726 5726 5725 5725 5725 5725 5724 5724 5724 5723 5723 5722 5722 5721 5720 5719 5717
5706 5706 5706 5706 5707 5708 5708 5709 5710 5711 5711 5712 5713 5713 5714 5714 5714 5714 5713 5713 5713 5713 5713 5713 5714 5715 5716 5716 5716 5717 5718 5718 5718 5719 5719 5720 5720 5721 5720 5721 5721 5721 5722 5722 5722 5722 5722 5722 5721 5722 5722 5722 5722 5723 5723 5723 5723 5723 5723 5723 5723 5723 5723 5722 5722 5722 5722 5722 5721 5721 5720 5720 5719 5719 5719 5718 5718 5717 5717 5717 5716 5716 5715 5715 5713
5701 5701 5701 5701 5702 5702 5703 5703 5704 5704 5705 5706 5707 5707 5708 5709 5709 5709 5710 5710 5710 5709 5709 5710 5711 5712 5712 5712 5713 5712 5713 5713 5714 5714 5715 5716 5716 5716 5716 5716 5716 5717 5717 5717 5717 5717 5717 5717 5717 5717 5717 5717 5718 5718 5718 5718 5718 5718 5718 5718 5718 5718 5717 5717 5716 5716 5716 5715 5715 5715 5714 5714 5713 5713 5713 5712 5712 5711 5710 5710 5709 5709 5709 5709 5708
5696 5696 5696 5696 5696 5696 5697 5697 5698 5698 5699 5700 5701 5702 5702 5703 5704 5704 5705 5705 5705 5704 5704 5706 5707 5707 5708 5710 5709 5708 5707 5708 5709 5710 5710 5711 5712 5712 5711 5711 5712 5712 5712 5712 5712 5712 5713 5713 5712 5712 5712 5712 5712 5712 5712 5712 5712 5712 5712 5712 5712 5712 5712 5711 5710 5710 5709 5708 5708 5708 5708 5707 5707 5706 5705 5705 5704 5703 5703 5702 5701 5702 5701 5701 5701
5689 5690 5690 5690 5690 5690 5691 5691 5692 5692 5693 5694 5695 5695 5696 5696 5697 5698 5699 5700 5700 5699 5700 5700 5701 5701 5703 5704 5704 5703 5704 5704 5705 5706 5706 5706 5707 5707 5707 5707 5707 5707 5707 5708 5707 5707 5707 5707 5707 5706 5706 5706 5706 5706 5706 5705 5705 5705 5705 5705 5705 5705 5705 5705 5704 5703 5702 5701 5701 5701 5700 5700 5699 5698 5698 5697 5696 5696 5695 5694 5693 5693 5693 5693 5693
5682 5683 5683 5683 5684 5684 5685 5685 5685 5686 5687 5688 5689 5689 5690 5690 5691 5692 5693 5694 5694 5694 5694 5696 5696 5696 5696 5697 5697 5698 5699 5699 5700 5700 5701 5701 5702 5702 5703 5703 5703 5703 5702 5702 5702 5702 5702 5701 5701 5700 5700 5700 5700 5700 5699 5699 5699 5698 5698 5698 5697 5697 5697 5697 5696 5696 5695 5694 5694 5693 5693 5692 5691 5690 5689 5689 5688 5687 5687 5686 5685 5685 5685 5684 5684
5676 5676 5677 5677 5677 5678 5678 5678 5679 5679 5680 5681 5682 5683 5684 5684 5685 5686 5687 5688 5688 5689 5689 5690 5691 5691 5690 5691 5691 5692 5693 5694 5694 5695 5696 5696 5697 5697 5698 5698 5698 5698 5697 5697 5697 5697 5697 5696 5696 5695 5695 5694 5694 5693 5693 5693 5692 5692 5691 5691 5690 5690 5689 5689 5688 5688 5687 5686 5686 5685 5684 5684 5683 5682 5681 5680 5679 5679 5678 5678 5677 5676 5677 5677 5676
5670 5670 5670 5671 5671 5671 5672 5672 5672 5672 5673 5674 5675 5676 5677 5677 5678 5679 5680 5681 5682 5683 5683 5684 5684 5685 5685 5685 5686 5687 5687 5688 5689 5690 5690 5691 5692 5692 5693 5693 5693 5692 5692 5692 5692 5691 5691 5691 5690 5690 5689 5688 5688 5687 5687 5686 5685 5685 5684 5684 5683 5683 5682 5681 5680 5680 5679 5678 5677 5676 5676 5675 5674 5673 5672 5671 5670 5669 5669 5669 5667 5667 5668 5668 5668
5663 5664 5664 5664 5664 5665 5665 5665 5665 5665 5666 5667 5667 5669 5670 5670 5671 5672 5673 5674 5675 5676 5677 5677 5678 5679 5679 5680 5681 5681 5681 5682 5683 5684 5685 5685 5686 5687 5687 5687 5687 5687 5686 5686 5686 5686 5686 5685 5685 5684 5683 5682 5682 5681 5680 5680 5679 5678 5677 5677 5676 5676 5675 5674 5673 5672 5671 5670 5669 5668 5667 5666 5665 5664 5663 5661 5661 5660 5659 5659 5658 5657 5658 5658 5658
5656 5658 5657 5657 5657 5658 5658 5658 5658 5659 5659 5660 5660 5661 5662 5663 5664 5664 5665 5666 5667 5668 5670 5671 5671 5672 5673 5674 5675 5675 5676 5676 5677 5678 5679 5679 5680 5681 5681 5681 5680 5680 5680 5680 5680 5680 5680 5679 5679 5678 5677 5677 5676 5675 5674 5673 5673 5672 5671 5670 5669 5669 5668 5667 5666 5665 5664 5663 5661 5660 5659 5658 5656 5655 5653 5652 5651 5650 5649 5649 5648 5647 5647 5647 5647
5649 5650 5650 5651 5651 5651 5651 5651 5652 5652 5652 5653 5653 5654 5655 5656 5657 5658 5659 5659 5660 5661 5662 5663 5664 5665 5666 5667 5668 5669 5670 5670 5671 5672 5672 5673 5673 5674 5674 5674 5674 5674 5674 5674 5674 5674 5674 5673 5672 5672 5671 5670 5670 5669 5668 5667 5666 5665 5664 5664 5663 5662 5661 5660 5659 5657 5656 5655 5654 5652 5651 5649 5647 5646 5644 5642 5641 5639 5639 5638 5637 5637 5637 5636 5636
5641 5642 5643 5643 5644 5645 5645 5645 5645 5645 5646 5646 5646 5647 5648 5649 5650 5651 5652 5652 5653 5654 5655 5656 5657 5658 5659 5660 5660 5662 5662 5663 5664 5665 5665 5666 5666 5667 5667 5667 5667 5667 5667 5667 5667 5667 5667 5666 5665 5664 5664 5663 5662 5662 5661 5660 5659 5658 5658 5657 5655 5655 5654 5653 5652 5650 5649 5647 5646 5644 5642 5640 5639 5637 5635 5633 5631 5630 5629 5628 5627 5626 5625 5626 5625
5632 5633 5634 5635 5636 5637 5638 5639 5639 5639 5640 5640 5640 5641 5642 5643 5644 5645 5645 5646 5646 5647 5648 5648 5649 5650 5651 5652 5653 5654 5655 5656 5657 5658 5658 5659 5659 5659 5660 5660 5660 5660 5660 5660 5660 5659 5659 5658 5658 5657 5657 5656 5655 5654 5654 5653 5652 5651 5650 5649 5648 5647 5646 5645 5644 5643 5642 5640 5638 5636 5634 5632 5630 5628 5626 5625 5623 5621 5620 5618 5616 5615 5615 5615 5614
5623 5624 5625 5626 5627 5628 5629 5631 5632 5633 5633 5634 5634 5635 5636 5637 5638 5638 5639 5639 5640 5640 5641 5642 5642 5643 5644 5645 5646 5647 5648 5649 5650 5650 5651 5651 5652 5652 5653 5653 5654 5654 5653 5653 5652 5652 5651 5651 5650 5650 5649 5649 5648 5647 5647 5646 5645 5644 5643 5642 5641 5640 5639 5638 5637 5636 5634 5632 5631 5629 5626 5624 5623 5621 5619 5617 5615 5613 5611 5609 5608 5607 5606 5604 5604
5613 5615 5616 5618 5619 5620 5621 5623 5624 5626 5626 5627 5628 5628 5629 5630 5632 5633 5633 5634 5634 5634 5634 5635 5636 5637 5637 5638 5639 5640 5641 5642 5643 5643 5644 5644 5645 5645 5646 5646 5647 5646 5646 5646 5645 5645 5644 5644 5644 5643 5642 5642 5641 5640 5640 5639 5638 5637 5636 5635 5634 5633 5632 5631 5630 5628 5627 5625 5623 5621 5619 5617 5616 5614 5612 5610 5608 5605 5603 5602 5600 5599 5597 5596 5595
5603 5605 5607 5609 5610 5612 5613 5614 5616 5617 5618 5619 5621 5622 5623 5625 5626 5627 5627 5628 5628 5628 5628 5628 5629 5629 5630 5631 5632 5633 5634 5635 5635 5636 5637 5637 5638 5638 5639 5639 5640 5640 5639 5639 5639 5638 5638 5638 5637 5637 5636 5635 5635 5634 5633 5632 5632 5631 5630 5629 5628 5627 5625 5624 5622 5621 5619 5618 5616 5614 5612 5610 5608 5607 5605 5603 5601 5598 5596 5595 5593 5591 5590 5589 5587
5594 5595 5597 5599 5601 5602 5603 5605 5607 5608 5609 5611 5613 5614 5618 5620 5619 5619 5620 5621 5621 5621 5621 5621 5622 5622 5622 5623 5624 5624 5625 5627 5628 5629 5630 5630 5631 5632 5633 5633 5633 5633 5633 5633 5633 5632 5632 5632 5631 5631 5630 5630 5629 5628 5627 5627 5626 5625 5624 5623 5621 5620 5618 5617 5615 5614 5613 5611 5609 5608 5605 5603 5601 5599 5597 5595 5593 5591 5589 5587 5586 5584 5582 5581 5580
5584 5586 5587 5589 5590 5592 5593 5595 5597 5598 5600 5603 5604 5605 5609 5611 5611 5610 5611 5613 5613 5613 5613 5614 5614 5613 5614 5614 5615 5615 5617 5619 5620 5622 5623 5624 5625 5626 5626 5626 5627 5627 5626 5627 5626 5626 5626 5626 5625 5625 5624 5624 5623 5622 5621 5621 5620 5619 5617 5616 5615 5613 5612 5611 5609 5608 5606 5605 5603 5601 5599 5596 5594 5592 5590 5588 5585 5583 5581 5580 5578 5576 5574 5573 5572
5573 5575 5577 5578 5580 5581 5583 5585 5587 5588 5590 5593 5595 5596 5598 5601 5601 5601 5603 5604 5605 5606 5607 5607 5606 5605 5606 5607 5607 5608 5609 5611 5613 5615 5616 5617 5618 5619 5619 5620 5620 5620 5620 5620 5620 5620 5620 5619 5619 5619 5618 5618 5617 5616 5615 5614 5613 5612 5611 5610 5608 5607 5606 5605 5603 5602 5600 5598 5596 5594 5591 5589 5587 5584 5582 5580 5577 5574 5572 5571 5570 5568 5566 5565 5564
5561 5563 5565 5567 5568 5571 5572 5574 5576 5578 5580 5583 5584 5586 5589 5590 5590 5592 5594 5595 5596 5598 5599 5599 5599 5598 5600 5601 5602 5603 5604 5605 5606 5608 5609 5610 5611 5612 5612 5613 5613 5614 5613 5613 5613 5613 5613 5613 5613 5612 5612 5611 5611 5610 5609 5608 5607 5606 5605 5604 5603 5601 5600 5599 5597 5595 5594 5592 5589 5587 5584 5582 5579 5577 5575 5572 5570 5567 5565 5563 5562 5560 5558 5557 5555
5548 5551 5554 5555 5556 5559 5561 5563 5565 5567 5570 5573 5575 5577 5579 5580 5580 5583 5585 5586 5587 5588 5589 5590 5590 5591 5592 5594 5596 5598 5598 5599 5600 5602 5602 5603 5604 5604 5605 5606 5606 5607 5607 5607 5607 5606 5606 5606 5606 5606 5606 5605 5605 5604 5603 5602 5601 5600 5599 5598 5597 5596 5594 5593 5591 5589 5587 5584 5582 5580 5577 5575 5572 5570 5567 5565 5562 5559 5557 5555 5553 5552 5550 5548 5546
5536 5539 5542 5544 5546 5548 5549 5552 5554 5556 5558 5560 5563 5566 5569 5569 5571 5573 5575 5576 5577 5579 5580 5581 5582 5583 5584 5587 5589 5590 5591 5593 5594 5595 5595 5596 5597 5597 5598 5599 5599 5599 5600 5600 5600 5600 5600 5600 5600 5600 5600 5599 5598 5598 5597 5596 5595 5594 5593 5592 5591 5590 5588 5587 5585 5583 5580 5578 5575 5572 5570 5568 5565 5563 5560 5558 5555 5552 5549 5547 5545 5543 5541 5539 5537
5525 5528 5530 5532 5534 5536 5538 5540 5543 5546 5547 5549 5552 5555 5559 5561 5563 5565 5567 5568 5569 5571 5572 5573 5574 5575 5577 5579 5581 5582 5584 5585 5587 5587 5588 5589 5590 5591 5591 5592 5592 5593 5593 5594 5594 5594 5595 5594 5594 5594 5594 5593 5593 5592 5591 5591 5590 5589 5588 5587 5586 5585 5583 5581 5579 5577 5575 5572 5569 5566 5563 5561 5558 5555 5553 5550 5548 5545 5541 5539 5537 5535 5533 5531 5530
5513 5516 5518 5520 5522 5525 5527 5529 5531 5534 5537 5540 5542 5546 5549 5553 5556 5559 5559 5560 5562 5564 5564 5565 5567 5569 5570 5571 5573 5575 5577 5578 5579 5580 5581 5582 5583 5584 5585 5585 5586 5586 5587 5588 5588 5588 5589 5589 5589 5589 5588 5588 5588 5587 5586 5586 5585 5584 5583 5582 5581 5580 5578 5576 5574 5572 5569 5566 5563 5560 5557 5554 5551 5548 5545 5543 5540 5537 5535 5532 5531 5529 5527 5526 5525
5500 5504 5506 5508 5510 5512 5515 5518 5520 5522 5526 5530 5533 5536 5540 5544 5548 5550 5550 5551 5554 5556 5557 5558 5559 5561 5563 5564 5566 5568 5570 5571 5572 5573 5574 5575 5576 5577 5578 5579 5579 5580 5581 5582 5582 5583 5583 5583 5583 5583 5583 5583 5583 5582 5582 5581 5580 5579 5579 5578 5577 5576 5574 5572 5570 5567 5564 5560 5557 5553 5550 5547 5544 5542 5539 5536 5534 5532 5530 5528 5526 5525 5524 5522 5521
5489 5492 5494 5496 5498 5501 5503 5506 5509 5512 5514 5518 5522 5526 5530 5534 5537 5539 5541 5544 5547 5550 5552 5552 5552 5553 5555 5558 5560 5561 5563 5565 5566 5567 5568 5569 5570 5571 5572 5572 5573 5574 5575 5576 5577 5577 5578 5578 5578 5578 5578 5578 5578 5577 5577 5576 5576 5576 5575 5574 5573 5572 5571 5569 5566 5562 5559 5555 5551 5547 5543 5540 5538 5536 5533 5531 5529 5528 5526 5525 5523 5522 5521 5520 5518
5479 5481 5484 5486 5488 5491 5493 5495 5498 5501 5504 5507 5511 5516 5520 5523 5527 5530 5533 5536 5539 5541 5543 5545 5546 5547 5550 5553 5554 5554 5557 5559 5560 5561 5562 5563 5564 5565 5566 5567 5568 5569 5570 5571 5571 5572 5572 5573 5573 5573 5573 5573 5573 5573 5573 5573 5572 5572 5572 5571 5570 5569 5568 5565 5562 5558 5554 5550 5545 5541 5537 5535 5533 5531 5529 5527 5526 5525 5523 5522 5520 5519 5518 5517 5515
5472 5474 5475 5477 5479 5482 5484 5486 5489 5492 5495 5498 5502 5506 5510 5513 5517 5520 5524 5527 5529 5531 5534 5537 5539 5541 5544 5547 5548 5549 5551 5553 5554 5555 5556 5557 5558 5560 5560 5561 5562 5563 5564 5565 5566 5567 5567 5568 5568 5568 5569 5569 5569 5569 5569 5569 5569 5569 5569 5569 5568 5566 5564 5562 5558 5554 5550 5545 5540 5536 5533 5530 5529 5528 5526 5525 5523 5522 5521 5519 5518 5517 5516 5514 5513
5466 5467 5469 5470 5472 5475 5477 5479 5482 5484 5487 5490 5493 5497 5501 5504 5508 5512 5515 5518 5521 5523 5526 5529 5532 5534 5537 5540 5542 5544 5546 5547 5548 5550 5551 5552 5553 5554 5555 5556 5557 5558 5559 5560 5561 5562 5563 5563 5564 5564 5564 5565 5565 5565 5566 5567 5567 5567 5567 5566 5565 5563 5561 5559 5555 5551 5546 5541 5536 5532 5529 5527 5526 5525 5523 5522 5521 5520 5518 5517 5516 5514 5513 5512 5510
5461 5462 5463 5464 5466 5468 5471 5474 5476 5479 5481 5484 5487 5490 5493 5497 5500 5504 5507 5510 5513 5516 5519 5522 5525 5528 5531 5533 5535 5538 5540 5542 5543 5544 5546 5547 5548 5549 5550 5551 5552 5554 5555 5556 5556 5557 5558 5559 5559 5560 5560 5561 5562 5563 5563 5564 5564 5564 5564 5563 5562 5560 5558 5556 5552 5547 5542 5537 5532 5528 5526 5525 5524 5522 5521 5520 5519 5518 5516 5515 5514 5512 5511 5509 5508
5457 5457 5458 5459 5461 5463 5466 5469 5471 5474 5477 5479 5482 5484 5487 5490 5493 5496 5500 5503 5506 5510 5514 5517 5520 5522 5525 5527 5530 5532 5534 5536 5538 5539 5541 5542 5543 5544 5545 5547 5548 5549 5550 5551 5552 5553 5554 5555 5555 5556 5557 5558 5559 5560 5561 5562 5562 5562 5561 5560 5559 5558 5556 5553 5549 5544 5539 5533 5529 5525 5524 5522 5521 5520 5519 5518 5517 5516 5514 5513 5511 5510 5509 5507 5505
5455 5454 5455 5455 5457 5459 5461 5464 5466 5469 5472 5475 5477 5480 5482 5485 5487 5490 5493 5496 5501 5505 5509 5512 5515 5518 5520 5522 5524 5527 5529 5531 5533 5534 5536 5537 5538 5540 5541 5543 5544 5545 5546 5547 5548 5549 5550 5551 5552 5553 5554 5556 5557 5558 5559 5560 5560 5559 5559 5558 5557 5555 5553 5550 5546 5542 5536 5531 5526 5523 5521 5520 5519 5518 5517 5516 5515 5514 5512 5511 5509 5508 5507 5505 5502
5451 5452 5452 5452 5453 5455 5457 5460 5463 5465 5468 5470 5473 5476 5478 5480 5482 5485 5488 5492 5497 5501 5505 5510 5513 5514 5515 5517 5520 5521 5524 5526 5528 5529 5531 5533 5534 5536 5537 5539 5540 5541 5542 5543 5544 5546 5547 5548 5549 5551 5552 5554 5555 5556 5557 5557 5557 5557 5556 5556 5554 5552 5550 5547 5544 5540 5534 5529 5525 5521 5519 5518 5517 5516 5515 5514 5513 5512 5511 5509 5508 5506 5505 5502 5500
5450 5450 5450 5450 5451 5452 5454 5456 5459 5461 5464 5466 5469 5471 5474 5476 5479 5482 5485 5489 5493 5498 5502 5507 5511 5511 5511 5513 5515 5517 5519 5522 5523 5525 5527 5529 5531 5532 5534 5535 5536 5537 5539 5540 5542 5543 5544 5546 5547 5549 5550 5551 5553 5554 5554 5555 5554 5554 5554 5553 5552 5550 5547 5545 5542 5538 5533 5528 5523 5520 5518 5516 5515 5514 5513 5512 5511 5510 5509 5507 5506 5504 5502 5500 5498
5450 5449 5449 5449 5449 5450 5452 5454 5456 5458 5460 5462 5465 5467 5471 5474 5476 5479 5483 5487 5491 5495 5499 5503 5506 5507 5508 5510 5512 5514 5516 5518 5520 5522 5524 5526 5528 5529 5530 5532 5533 5535 5536 5538 5540 5541 5542 5544 5546 5547 5548 5549 5551 5551 5552 5552 5552 5552 5552 5551 5549 5547 5545 5543 5540 5536 5532 5528 5523 5519 5517 5515 5514 5513 5512 5511 5510 5509 5507 5506 5504 5503 5501 5498 5496
5453 5451 5449 5449 5449 5450 5451 5452 5454 5456 5458 5460 5462 5465 5469 5471 5473 5477 5482 5486 5489 5493 5496 5499 5501 5504 5506 5508 5511 5513 5514 5515 5517 5519 5521 5523 5525 5526 5528 5530 5532 5533 5535 5536 5537 5539 5541 5543 5544 5545 5546 5547 5548 5549 5549 5550 5550 5550 5549 5548 5547 5545 5543 5541 5538 5535 5532 5528 5524 5520 5516 5514 5513 5512 5511 5510 5508 5507 5506 5505 5503 5502 5499 5497 5495
5458 5455 5453 5451 5451 5451 5451 5452 5453 5455 5457 5458 5461 5464 5467 5470 5472 5475 5480 5484 5487 5490 5493 5496 5499 5502 5505 5506 5508 5511 5512 5514 5515 5517 5519 5521 5523 5525 5527 5528 5530 5531 5533 5534 5536 5538 5540 5541 5542 5543 5544 5545 5546 5547 5547 5547 5548 5548 5547 5546 5545 5543 5541 5539 5537 5534 5531 5528 5524 5520 5517 5514 5512 5511 5509 5508 5507 5506 5505 5504 5502 5500 5498 5496 5494
5463 5461 5458 5456 5455 5455 5454 5454 5455 5456 5457 5459 5462 5465 5469 5471 5473 5476 5480 5483 5486 5488 5491 5495 5498 5501 5502 5504 5506 5509 5511 5512 5514 5516 5517 5519 5521 5523 5525 5527 5528 5530 5531 5533 5535 5537 5538 5539 5540 5541 5542 5543 5544 5545 5545 5545 5545 5545 5545 5544 5543 5541 5540 5538 5536 5533 5530 5527 5524 5521 5517 5514 5511 5510 5509 5507 5506 5505 5504 5503 5501 5499 5497 5495 5493
5467 5465 5464 5462 5461 5460 5460 5460 5460 5461 5462 5464 5467 5470 5472 5474 5476 5478 5482 5484 5487 5489 5491 5495 5497 5499 5501 5503 5505 5507 5509 5511 5513 5514 5516 5518 5520 5522 5523 5525 5527 5528 5530 5532 5534 5535 5536 5537 5538 5539 5540 5541 5542 5542 5543 5543 5543 5543 5543 5542 5541 5539 5538 5536 5534 5532 5529 5526 5524 5521 5518 5515 5512 5509 5508 5506 5505 5504 5503 5502 5500 5499 5497 5495 5493
5470 5469 5468 5467 5466 5466 5465 5465 5466 5467 5468 5469 5471 5473 5475 5477 5478 5480 5483 5485 5488 5490 5492 5494 5497 5498 5501 5503 5505 5507 5508 5510 5512 5513 5515 5517 5518 5520 5522 5524 5526 5527 5529 5531 5532 5533 5534 5535 5536 5537 5537 5538 5539 5540 5540 5540 5540 5540 5540 5539 5539 5537 5536 5534 5532 5530 5528 5525 5523 5520 5518 5515 5512 5510 5507 5506 5504 5503 5502 5501 5499 5498 5496 5495 5493
5473 5472 5471 5471 5470 5470 5470 5470 5471 5471 5472 5474 5475 5476 5478 5479 5481 5482 5484 5487 5489 5490 5492 5494 5496 5498 5500 5502 5504 5506 5508 5509 5511 5512 5514 5515 5517 5519 5521 5523 5525 5527 5528 5530 5531 5531 5532 5533 5534 5535 5535 5536 5537 5537 5538 5538 5538 5538 5537 5537 5536 5535 5534 5532 5531 5529 5527 5525 5522 5520 5517 5515 5512 5510 5508 5505 5503 5502 5501 5499 5498 5497 5496 5494 5493
5476 5475 5474 5474 5474 5473 5474 5474 5474 5475 5476 5476 5477 5479 5480 5481 5482 5484 5486 5487 5489 5491 5493 5495 5497 5499 5500 5502 5504 5505 5507 5508 5510 5511 5513 5515 5517 5519 5521 5523 5524 5526 5527 5528 5529 5530 5531 5531 5532 5533 5533 5534 5534 5535 5535 5535 5535 5535 5534 5534 5534 5533 5532 5530 5529 5527 5526 5524 5522 5519 5517 5515 5512 5510 5508 5505 5503 5501 5499 5498 5497 5496 5494 5493 5492
5479 5478 5477 5477 5476 5476 5476 5476 5477 5477 5478 5479 5479 5480 5482 5483 5484 5485 5487 5489 5490 5492 5493 5495 5497 5498 5500 5502 5503 5505 5506 5508 5509 5511 5513 5515 5517 5518 5520 5522 5523 5524 5525 5526 5527 5528 5529 5529 5530 5530 5531 5531 5532 5532 5532 5532 5532 5532 5532 5531 5531 5530 5529 5528 5527 5526 5525 5523 5521 5519 5516 5514 5512 5510 5508 5506 5503 5501 5498 5496 5495 5494 5493 5492 5491